Date String (YYYY-MM-DD hh:mm:ss) UTC,Instrument flags,absolute air pressure of the measurement (hPa),sample flow rate (lpm),inlet stack bypass flow (lpm),air temperature of the measurement (°C),ambient temperature measured by the external sensor (°C),aerosol sample conditioner tube jacket temperature (°C),OPC LED temperature (°C),internal box temperature (°C),relative humidity of the measurement (%),span deviation,mass concentration of particles derived from Lorenz-Mie calculation of OPC scattering (μg/m³),mass concentration of particles derived from Lorenz-Mie calculation of OPC scattering (μg/m³),mass concentration of particles derived from Lorenz-Mie calculation of OPC scattering (μg/m³)
DateTimeUTC,F1_M11,P_M11,Q1_M11,Q2_M11,T1_M11,T2_M11,T3_M11,T4_M11,T5_M11,U1_M11,ZSPAN_M11,X2_M11,X0_M11,X1_M11
2023-12-28 03:00:00,SystemResetWarning,0832.6,4.99,000.00,021.8,020.8,000.0,030.2,022.9,10.4,0000.0,0001.86,0004.94,0001.09
2023-12-28 03:01:00,SystemResetWarning,0832.6,4.99,000.00,021.8,020.8,000.0,030.2,022.9,10.4,0000.0,0001.84,0004.15,0001.09
2023-12-28 03:02:00,SystemResetWarning,0832.6,5.00,000.00,021.7,020.7,000.0,030.2,022.9,10.5,0000.0,0001.80,0003.93,0001.07
2023-12-28 03:03:00,SystemResetWarning,0832.5,5.01,000.00,021.7,020.7,000.0,030.1,022.9,10.5,0000.0,0001.79,0003.89,0001.07
2023-12-28 03:04:00,SystemResetWarning,0832.6,5.00,000.00,021.7,020.7,000.0,030.1,022.9,10.4,0000.0,0001.77,0003.66,0001.05
2023-12-28 03:05:00,SystemResetWarning,0832.6,5.00,000.00,021.7,020.7,000.0,030.1,022.9,10.4,0000.0,0001.79,0003.86,0001.05
2023-12-28 03:06:00,SystemResetWarning,0832.6,5.00,000.00,021.7,020.7,000.0,030.1,022.9,10.4,0000.0,0001.85,0004.81,0001.06
2023-12-28 03:07:00,SystemResetWarning,0832.7,5.00,000.00,021.7,020.7,000.0,030.1,022.9,10.4,0000.0,0001.82,0005.08,0001.07
2023-12-28 03:08:00,SystemResetWarning,0832.6,5.00,000.00,021.7,020.7,000.0,030.1,022.9,10.4,0000.0,0001.81,0005.23,0001.08
2023-12-28 03:09:00,SystemResetWarning,0832.5,5.00,000.00,021.7,020.7,000.0,030.1,022.9,10.4,0000.0,0001.83,0005.81,0001.10
2023-12-28 03:10:00,SystemResetWarning,0832.5,5.01,000.00,021.7,020.7,000.0,030.1,022.8,10.4,0000.0,0001.83,0005.99,0001.12
2023-12-28 03:11:00,SystemResetWarning,0832.5,5.00,000.00,021.7,020.7,000.0,030.1,022.8,10.4,0000.0,0001.80,0005.77,0001.13
2023-12-28 03:12:00,SystemResetWarning,0832.6,5.00,000.00,021.7,020.7,000.0,030.1,022.8,10.3,0000.0,0001.85,0005.76,0001.15
2023-12-28 03:13:00,SystemResetWarning,0832.6,5.00,000.00,021.7,020.7,000.0,030.1,022.9,10.2,0000.0,0001.85,0005.71,0001.17
2023-12-28 03:14:00,SystemResetWarning,0832.6,5.00,000.00,021.7,020.7,000.0,030.1,022.9,10.2,0000.0,0001.85,0005.67,0001.18
2023-12-28 03:15:00,SystemResetWarning,0832.6,5.00,000.00,021.6,020.7,000.0,030.0,022.9,10.3,0000.0,0001.86,0005.51,0001.20
2023-12-28 03:16:00,SystemResetWarning,0832.5,4.99,000.00,021.6,020.6,000.0,030.0,022.9,10.2,0000.0,0001.83,0005.35,0001.22
2023-12-28 03:17:00,SystemResetWarning,0832.5,4.99,000.00,021.6,020.6,000.0,030.0,022.8,10.1,0000.0,0001.77,0004.53,0001.23
2023-12-28 03:18:00,SystemResetWarning,0832.5,4.99,000.00,021.6,020.6,000.0,030.0,022.8,10.1,0000.0,0001.75,0003.89,0001.25
2023-12-28 03:19:00,SystemResetWarning,0832.5,5.01,000.00,021.6,020.6,000.0,030.0,022.7,10.2,0000.0,0001.74,0003.81,0001.27
2023-12-28 03:20:00,SystemResetWarning,0832.5,5.01,000.00,021.6,020.5,000.0,030.0,022.7,10.2,0000.0,0001.75,0003.13,0001.29
2023-12-28 03:21:00,SystemResetWarning,0832.5,5.01,000.00,021.6,020.5,000.0,030.0,022.7,10.2,0000.0,0001.80,0003.04,0001.33
2023-12-28 03:22:00,SystemResetWarning,0832.6,5.00,000.00,021.6,020.5,000.0,030.0,022.7,10.2,0000.0,0001.86,0003.09,0001.37
2023-12-28 03:23:00,SystemResetWarning,0832.6,4.99,000.00,021.5,020.5,000.0,030.0,022.7,10.2,0000.0,0001.88,0003.12,0001.41
2023-12-28 03:24:00,SystemResetWarning,0832.5,5.00,000.00,021.5,020.5,000.0,030.0,022.7,10.2,0000.0,0001.89,0003.17,0001.44
2023-12-28 03:25:00,SystemResetWarning,0832.5,5.00,000.00,021.5,020.5,000.0,029.9,022.7,10.3,0000.0,0001.96,0003.32,0001.49
2023-12-28 03:26:00,SystemResetWarning,0832.5,5.00,000.00,021.5,020.5,000.0,029.9,022.7,10.3,0000.0,0002.02,0004.05,0001.56
2023-12-28 03:27:00,SystemResetWarning,0832.6,5.00,000.00,021.5,020.5,000.0,029.9,022.7,10.4,0000.0,0002.08,0005.01,0001.64
2023-12-28 03:28:00,SystemResetWarning,0832.6,4.99,000.00,021.5,020.5,000.0,029.9,022.7,10.5,0000.0,0002.14,0005.13,0001.70
2023-12-28 03:29:00,SystemResetWarning,0832.5,5.00,000.00,021.5,020.5,000.0,029.9,022.7,10.5,0000.0,0002.23,0005.27,0001.76
2023-12-28 03:30:00,SystemResetWarning,0832.6,5.00,000.00,021.5,020.4,000.0,029.9,022.6,10.6,0000.0,0002.28,0005.31,0001.81
2023-12-28 03:31:00,SystemResetWarning,0832.5,5.00,000.00,021.4,020.4,000.0,029.9,022.6,10.6,0000.0,0002.33,0005.42,0001.88
2023-12-28 03:32:00,SystemResetWarning,0832.5,5.00,000.00,021.4,020.4,000.0,029.9,022.6,10.6,0000.0,0002.36,0005.46,0001.91
2023-12-28 03:33:00,SystemResetWarning,0832.5,5.00,000.00,021.4,020.4,000.0,029.9,022.6,10.6,0000.0,0002.43,0006.45,0001.94
2023-12-28 03:34:00,SystemResetWarning,0832.5,4.99,000.00,021.4,020.4,000.0,029.8,022.6,10.6,0000.0,0002.42,0007.43,0001.95
2023-12-28 03:35:00,SystemResetWarning,0832.5,4.99,000.00,021.4,020.4,000.0,029.8,022.5,10.6,0000.0,0002.47,0007.68,0001.96
2023-12-28 03:36:00,SystemResetWarning,0832.4,5.01,000.00,021.4,020.3,000.0,029.8,022.5,10.6,0000.0,0002.49,0007.71,0001.95
2023-12-28 03:37:00,SystemResetWarning,0832.4,5.01,000.00,021.4,020.4,000.0,029.8,022.6,10.5,0000.0,0002.46,0007.34,0001.92
2023-12-28 03:38:00,SystemResetWarning,0832.4,5.01,000.00,021.4,020.4,000.0,029.8,022.7,10.5,0000.0,0002.48,0006.95,0001.87
2023-12-28 03:39:00,SystemResetWarning,0832.4,4.99,000.00,021.4,020.5,000.0,029.8,022.8,10.4,0000.0,0002.45,0006.96,0001.82
2023-12-28 03:40:00,SystemResetWarning,0832.4,4.99,000.00,021.5,020.5,000.0,029.8,022.8,10.3,0000.0,0002.37,0007.07,0001.77
2023-12-28 03:41:00,SystemResetWarning,0832.4,4.99,000.00,021.5,020.6,000.0,029.8,022.8,10.3,0000.0,0002.34,0007.72,0001.71
2023-12-28 03:42:00,SystemResetWarning,0832.5,5.00,000.00,021.5,020.6,000.0,029.8,022.8,10.3,0000.0,0002.30,0007.96,0001.66
2023-12-28 03:43:00,SystemResetWarning,0832.4,5.01,000.00,021.5,020.6,000.0,029.8,022.8,10.3,0000.0,0002.27,0007.97,0001.61
2023-12-28 03:44:00,SystemResetWarning,0832.4,5.01,000.00,021.5,020.6,000.0,029.8,022.8,10.2,0000.0,0002.23,0007.24,0001.57
2023-12-28 03:45:00,SystemResetWarning,0832.4,5.01,000.00,021.5,020.6,000.0,029.8,022.9,10.2,0000.0,0002.24,0006.48,0001.54
2023-12-28 03:46:00,SystemResetWarning,0832.4,5.00,000.00,021.5,020.6,000.0,029.8,022.9,10.3,0000.0,0002.19,0005.89,0001.52
2023-12-28 03:47:00,SystemResetWarning,0832.3,5.00,000.00,021.5,020.6,000.0,029.8,022.9,10.2,0000.0,0002.16,0005.85,0001.50
2023-12-28 03:48:00,SystemResetWarning,0832.3,5.00,000.00,021.5,020.6,000.0,029.8,022.9,10.3,0000.0,0002.17,0005.67,0001.50
2023-12-28 03:49:00,SystemResetWarning,0832.3,5.00,000.00,021.6,020.6,000.0,029.8,022.9,10.4,0000.0,0002.15,0006.68,0001.49
2023-12-28 03:50:00,SystemResetWarning,0832.3,5.00,000.00,021.6,020.6,000.0,029.8,022.9,10.4,0000.0,0002.14,0006.88,0001.49
2023-12-28 03:51:00,SystemResetWarning,0832.3,5.00,000.00,021.6,020.6,000.0,029.8,022.9,10.4,0000.0,0002.17,0006.88,0001.50
2023-12-28 03:52:00,SystemResetWarning,0832.3,5.00,000.00,021.6,020.6,000.0,029.8,022.9,10.3,0000.0,0002.15,0006.13,0001.52
2023-12-28 03:53:00,SystemResetWarning,0832.3,5.00,000.00,021.6,020.6,000.0,029.8,022.9,10.4,0000.0,0002.15,0005.52,0001.52
2023-12-28 03:54:00,SystemResetWarning,0832.3,5.00,000.00,021.6,020.6,000.0,029.8,022.9,10.4,0000.0,0002.18,0005.49,0001.53
2023-12-28 03:55:00,SystemResetWarning,0832.3,5.00,000.00,021.6,020.7,000.0,029.8,022.9,10.3,0000.0,0002.16,0005.44,0001.52
2023-12-28 03:56:00,SystemResetWarning,0832.3,5.00,000.00,021.6,020.7,000.0,029.8,022.9,10.3,0000.0,0002.11,0005.24,0001.51
2023-12-28 03:57:00,SystemResetWarning,0832.3,5.00,000.00,021.6,020.7,000.0,029.8,022.9,10.3,0000.0,0002.08,0005.18,0001.50
2023-12-28 03:58:00,SystemResetWarning,0832.3,4.99,000.00,021.6,020.7,000.0,029.8,022.9,10.2,0000.0,0002.07,0005.11,0001.48
2023-12-28 03:59:00,SystemResetWarning,0832.3,5.00,000.00,021.6,020.7,000.0,029.8,022.9,10.1,0000.0,0002.01,0005.03,0001.46
